Time,TemperatureF,DewpointF,PressureIn,WindDirection,WindDirectionDegrees,WindSpeedMPH,WindSpeedGustMPH,Humidity,HourlyPrecipIn,Conditions,Clouds,dailyrainin,SoftwareType,DateUTC
2013-03-07 00:05:00,42.6,24.3,30.18,North,0,0.0,-999.0,48,-99.99,,,0.00,Acu-Link.com,2013-03-07 06:05:00,
2013-03-07 00:20:00,42.4,24.6,30.17,SE,135,0.0,-999.0,49,-99.99,,,0.00,Acu-Link.com,2013-03-07 06:20:00,
2013-03-07 00:36:00,43.9,22.9,30.17,SE,135,1.6,-999.0,43,-99.99,,,0.00,Acu-Link.com,2013-03-07 06:36:00,
2013-03-07 00:51:00,45.7,21.5,30.16,ESE,112,2.2,-999.0,38,-99.99,,,0.00,Acu-Link.com,2013-03-07 06:51:00,
2013-03-07 01:06:00,45.9,21.7,30.16,WNW,292,0.0,-999.0,38,-99.99,,,0.00,Acu-Link.com,2013-03-07 07:06:00,
2013-03-07 01:21:00,45.9,21.1,30.16,NE,45,0.0,-999.0,37,-99.99,,,0.00,Acu-Link.com,2013-03-07 07:21:00,
2013-03-07 01:37:00,45.7,20.9,30.15,South,180,0.0,-999.0,37,-99.99,,,0.00,Acu-Link.com,2013-03-07 07:37:00,
2013-03-07 01:52:00,45.7,21.5,30.16,South,180,0.0,-999.0,38,-99.99,,,0.00,Acu-Link.com,2013-03-07 07:52:00,
2013-03-07 02:07:00,45.0,21.5,30.15,East,90,0.0,-999.0,39,-99.99,,,0.00,Acu-Link.com,2013-03-07 08:07:00,
2013-03-07 02:22:00,45.7,21.5,30.15,South,180,0.0,-999.0,38,-99.99,,,0.00,Acu-Link.com,2013-03-07 08:22:00,
2013-03-07 02:37:00,45.7,20.9,30.15,ESE,112,3.1,-999.0,37,-99.99,,,0.00,Acu-Link.com,2013-03-07 08:37:00,
2013-03-07 02:53:00,45.7,20.9,30.15,East,90,1.6,-999.0,37,-99.99,,,0.00,Acu-Link.com,2013-03-07 08:53:00,
2013-03-07 03:08:00,45.9,21.1,30.15,SSE,157,2.7,-999.0,37,-99.99,,,0.00,Acu-Link.com,2013-03-07 09:08:00,
2013-03-07 03:23:00,45.5,21.4,30.15,East,90,2.2,-999.0,38,-99.99,,,0.00,Acu-Link.com,2013-03-07 09:23:00,
2013-03-07 03:38:00,45.7,21.5,30.15,ESE,112,3.1,-999.0,38,-99.99,,,0.00,Acu-Link.com,2013-03-07 09:38:00,
2013-03-07 03:55:00,46.0,21.2,30.15,SSE,157,2.7,-999.0,37,-99.99,,,0.00,Acu-Link.com,2013-03-07 09:55:00,
2013-03-07 04:10:00,46.0,21.2,30.15,ESE,112,2.7,-999.0,37,-99.99,,,0.00,Acu-Link.com,2013-03-07 10:10:00,
2013-03-07 04:25:00,45.7,21.5,30.14,ENE,67,2.7,-999.0,38,-99.99,,,0.00,Acu-Link.com,2013-03-07 10:25:00,
2013-03-07 04:40:00,45.5,22.6,30.15,SSE,157,2.7,-999.0,40,-99.99,,,0.00,Acu-Link.com,2013-03-07 10:40:00,
2013-03-07 04:56:00,45.5,22.6,30.15,ESE,112,2.7,-999.0,40,-99.99,,,0.00,Acu-Link.com,2013-03-07 10:56:00,
2013-03-07 05:11:00,45.3,22.4,30.16,NE,45,2.7,-999.0,40,-99.99,,,0.00,Acu-Link.com,2013-03-07 11:11:00,
2013-03-07 05:26:00,45.3,23.6,30.16,South,180,3.8,-999.0,42,-99.99,,,0.00,Acu-Link.com,2013-03-07 11:26:00,
2013-03-07 05:41:00,45.0,23.3,30.16,SE,135,2.2,-999.0,42,-99.99,,,0.00,Acu-Link.com,2013-03-07 11:41:00,
2013-03-07 05:56:00,44.8,23.7,30.17,ENE,67,2.2,-999.0,43,-99.99,,,0.00,Acu-Link.com,2013-03-07 11:56:00,
2013-03-07 06:12:00,44.6,23.5,30.17,SW,225,2.7,-999.0,43,-99.99,,,0.00,Acu-Link.com,2013-03-07 12:12:00,
2013-03-07 06:27:00,44.4,23.9,30.17,East,90,5.8,-999.0,44,-99.99,,,0.00,Acu-Link.com,2013-03-07 12:27:00,
2013-03-07 06:42:00,44.2,24.3,30.17,ESE,112,1.6,-999.0,45,-99.99,,,0.00,Acu-Link.com,2013-03-07 12:42:00,
2013-03-07 06:57:00,43.9,24.5,30.18,SE,135,5.1,-999.0,46,-99.99,,,0.00,Acu-Link.com,2013-03-07 12:57:00,
2013-03-07 07:12:00,43.9,25.0,30.18,NNE,22,1.6,-999.0,47,-99.99,,,0.00,Acu-Link.com,2013-03-07 13:12:00,
2013-03-07 07:28:00,44.8,25.3,30.19,ENE,67,2.7,-999.0,46,-99.99,,,0.00,Acu-Link.com,2013-03-07 13:28:00,
2013-03-07 07:43:00,46.4,25.7,30.19,SSW,202,3.8,-999.0,44,-99.99,,,0.00,Acu-Link.com,2013-03-07 13:43:00,
2013-03-07 07:58:00,48.6,25.9,30.19,East,90,4.3,-999.0,41,-99.99,,,0.00,Acu-Link.com,2013-03-07 13:58:00,
2013-03-07 08:13:00,49.8,25.9,30.20,SW,225,1.1,-999.0,39,-99.99,,,0.00,Acu-Link.com,2013-03-07 14:13:00,
2013-03-07 08:28:00,52.3,26.2,30.21,SSE,157,3.8,-999.0,36,-99.99,,,0.00,Acu-Link.com,2013-03-07 14:28:00,
2013-03-07 08:44:00,54.0,27.6,30.21,South,180,1.6,-999.0,36,-99.99,,,0.00,Acu-Link.com,2013-03-07 14:44:00,
2013-03-07 08:59:00,54.7,27.6,30.21,ESE,112,2.2,-999.0,35,-99.99,,,0.00,Acu-Link.com,2013-03-07 14:59:00,
2013-03-07 09:14:00,55.0,27.9,30.21,ESE,112,3.1,-999.0,35,-99.99,,,0.00,Acu-Link.com,2013-03-07 15:14:00,
2013-03-07 09:29:00,57.0,28.9,30.21,North,0,2.7,-999.0,34,-99.99,,,0.00,Acu-Link.com,2013-03-07 15:29:00,
2013-03-07 09:45:00,57.6,28.7,30.20,ENE,67,3.8,-999.0,33,-99.99,,,0.00,Acu-Link.com,2013-03-07 15:45:00,
2013-03-07 10:00:00,59.9,28.4,30.21,SSE,157,3.1,-999.0,30,-99.99,,,0.00,Acu-Link.com,2013-03-07 16:00:00,
2013-03-07 10:15:00,61.7,29.1,30.20,SE,135,3.1,-999.0,29,-99.99,,,0.00,Acu-Link.com,2013-03-07 16:15:00,
2013-03-07 10:30:00,62.4,28.0,30.20,SW,225,5.1,-999.0,27,-99.99,,,0.00,Acu-Link.com,2013-03-07 16:30:00,
2013-03-07 10:45:00,63.9,28.3,30.21,ESE,112,4.7,-999.0,26,-99.99,,,0.00,Acu-Link.com,2013-03-07 16:45:00,
2013-03-07 11:01:00,65.8,30.0,30.20,SSE,157,4.3,-999.0,26,-99.99,,,0.00,Acu-Link.com,2013-03-07 17:01:00,
2013-03-07 11:16:00,65.7,26.9,30.19,ESE,112,7.8,-999.0,23,-99.99,,,0.00,Acu-Link.com,2013-03-07 17:16:00,
2013-03-07 11:31:00,67.3,27.1,30.19,WNW,292,5.1,-999.0,22,-99.99,,,0.00,Acu-Link.com,2013-03-07 17:31:00,
2013-03-07 11:46:00,66.7,27.8,30.18,East,90,7.8,-999.0,23,-99.99,,,0.00,Acu-Link.com,2013-03-07 17:46:00,
2013-03-07 12:01:00,68.4,29.1,30.17,ENE,67,4.3,-999.0,23,-99.99,,,0.00,Acu-Link.com,2013-03-07 18:01:00,
2013-03-07 12:17:00,68.2,27.9,30.16,NE,45,5.1,-999.0,22,-99.99,,,0.00,Acu-Link.com,2013-03-07 18:17:00,
2013-03-07 12:32:00,67.8,28.7,30.15,ESE,112,6.3,-999.0,23,-99.99,,,0.00,Acu-Link.com,2013-03-07 18:32:00,
2013-03-07 12:47:00,68.4,29.1,30.14,NNW,337,6.3,-999.0,23,-99.99,,,0.00,Acu-Link.com,2013-03-07 18:47:00,
2013-03-07 13:02:00,69.3,29.9,30.13,ESE,112,7.8,-999.0,23,-99.99,,,0.00,Acu-Link.com,2013-03-07 19:02:00,
2013-03-07 13:17:00,70.2,27.2,30.13,ENE,67,6.3,-999.0,20,-99.99,,,0.00,Acu-Link.com,2013-03-07 19:17:00,
2013-03-07 13:33:00,71.1,26.7,30.11,ESE,112,9.4,-999.0,19,-99.99,,,0.00,Acu-Link.com,2013-03-07 19:33:00,
2013-03-07 13:48:00,70.9,25.3,30.11,West,270,4.7,-999.0,18,-99.99,,,0.00,Acu-Link.com,2013-03-07 19:48:00,
2013-03-07 14:03:00,72.0,27.5,30.10,NE,45,5.1,-999.0,19,-99.99,,,0.00,Acu-Link.com,2013-03-07 20:03:00,
2013-03-07 14:18:00,70.7,26.4,30.10,NNE,22,3.1,-999.0,19,-99.99,,,0.00,Acu-Link.com,2013-03-07 20:18:00,
2013-03-07 14:34:00,71.2,28.1,30.09,NE,45,6.7,-999.0,20,-99.99,,,0.00,Acu-Link.com,2013-03-07 20:34:00,
2013-03-07 14:49:00,72.0,27.5,30.09,East,90,7.4,-999.0,19,-99.99,,,0.00,Acu-Link.com,2013-03-07 20:49:00,
2013-03-07 15:04:00,72.1,27.6,30.08,West,270,7.8,-999.0,19,-99.99,,,0.00,Acu-Link.com,2013-03-07 21:04:00,
2013-03-07 15:19:00,71.8,26.0,30.07,West,270,4.3,-999.0,18,-99.99,,,0.00,Acu-Link.com,2013-03-07 21:19:00,
2013-03-07 15:34:00,72.3,26.4,30.08,NE,45,6.3,-999.0,18,-99.99,,,0.00,Acu-Link.com,2013-03-07 21:34:00,
2013-03-07 15:50:00,73.0,27.0,30.06,SSE,157,7.8,-999.0,18,-99.99,,,0.00,Acu-Link.com,2013-03-07 21:50:00,
2013-03-07 16:05:00,71.6,25.9,30.06,ESE,112,5.8,-999.0,18,-99.99,,,0.00,Acu-Link.com,2013-03-07 22:05:00,
2013-03-07 16:20:00,72.0,27.5,30.06,ESE,112,9.4,-999.0,19,-99.99,,,0.00,Acu-Link.com,2013-03-07 22:20:00,
2013-03-07 16:35:00,72.3,26.4,30.06,NE,45,3.1,-999.0,18,-99.99,,,0.00,Acu-Link.com,2013-03-07 22:35:00,
2013-03-07 16:50:00,71.2,26.9,30.06,East,90,6.7,-999.0,19,-99.99,,,0.00,Acu-Link.com,2013-03-07 22:50:00,
2013-03-07 17:06:00,70.3,27.4,30.05,ESE,112,2.7,-999.0,20,-99.99,,,0.00,Acu-Link.com,2013-03-07 23:06:00,
2013-03-07 17:21:00,70.0,27.1,30.06,ESE,112,5.1,-999.0,20,-99.99,,,0.00,Acu-Link.com,2013-03-07 23:21:00,
2013-03-07 17:36:00,70.2,26.0,30.06,NE,45,4.7,-999.0,19,-99.99,,,0.00,Acu-Link.com,2013-03-07 23:36:00,
2013-03-07 17:51:00,68.7,26.0,30.06,SSE,157,8.9,-999.0,20,-99.99,,,0.00,Acu-Link.com,2013-03-07 23:51:00,
2013-03-07 18:06:00,67.5,27.3,30.06,ENE,67,4.3,-999.0,22,-99.99,,,0.00,Acu-Link.com,2013-03-08 00:06:00,
2013-03-07 18:22:00,66.7,27.8,30.06,WNW,292,3.1,-999.0,23,-99.99,,,0.00,Acu-Link.com,2013-03-08 00:22:00,
2013-03-07 18:37:00,66.2,29.3,30.07,NNE,22,4.7,-999.0,25,-99.99,,,0.00,Acu-Link.com,2013-03-08 00:37:00,
2013-03-07 18:52:00,65.5,30.6,30.08,East,90,4.3,-999.0,27,-99.99,,,0.00,Acu-Link.com,2013-03-08 00:52:00,
2013-03-07 19:07:00,64.8,30.9,30.08,SSE,157,3.8,-999.0,28,-99.99,,,0.00,Acu-Link.com,2013-03-08 01:07:00,
2013-03-07 19:23:00,64.0,31.1,30.08,ESE,112,3.1,-999.0,29,-99.99,,,0.00,Acu-Link.com,2013-03-08 01:23:00,
2013-03-07 19:38:00,63.7,31.7,30.09,SE,135,2.7,-999.0,30,-99.99,,,0.00,Acu-Link.com,2013-03-08 01:38:00,
2013-03-07 19:53:00,63.3,32.2,30.09,ESE,112,2.7,-999.0,31,-99.99,,,0.00,Acu-Link.com,2013-03-08 01:53:00,
2013-03-07 20:08:00,62.6,32.3,30.09,NE,45,3.1,-999.0,32,-99.99,,,0.00,Acu-Link.com,2013-03-08 02:08:00,
2013-03-07 20:23:00,62.2,32.8,30.09,SE,135,3.1,-999.0,33,-99.99,,,0.00,Acu-Link.com,2013-03-08 02:23:00,
2013-03-07 20:39:00,61.5,32.9,30.09,ESE,112,2.7,-999.0,34,-99.99,,,0.00,Acu-Link.com,2013-03-08 02:39:00,
2013-03-07 20:54:00,61.3,33.5,30.10,ESE,112,3.8,-999.0,35,-99.99,,,0.00,Acu-Link.com,2013-03-08 02:54:00,
2013-03-07 21:09:00,61.3,33.5,30.09,East,90,7.4,-999.0,35,-99.99,,,0.00,Acu-Link.com,2013-03-08 03:09:00,
2013-03-07 21:24:00,61.3,34.2,30.09,SW,225,3.8,-999.0,36,-99.99,,,0.00,Acu-Link.com,2013-03-08 03:24:00,
2013-03-07 21:39:00,61.3,34.2,30.09,ESE,112,6.3,-999.0,36,-99.99,,,0.00,Acu-Link.com,2013-03-08 03:39:00,
2013-03-07 21:55:00,60.6,34.2,30.09,ENE,67,4.7,-999.0,37,-99.99,,,0.00,Acu-Link.com,2013-03-08 03:55:00,
2013-03-07 22:10:00,60.6,34.9,30.09,NE,45,5.1,-999.0,38,-99.99,,,0.00,Acu-Link.com,2013-03-08 04:10:00,
2013-03-07 22:25:00,60.4,35.4,30.09,NE,45,5.1,-999.0,39,-99.99,,,0.00,Acu-Link.com,2013-03-08 04:25:00,
2013-03-07 22:40:00,60.6,35.5,30.09,ESE,112,6.3,-999.0,39,-99.99,,,0.00,Acu-Link.com,2013-03-08 04:40:00,
2013-03-07 22:55:00,60.4,35.4,30.09,ENE,67,4.7,-999.0,39,-99.99,,,0.00,Acu-Link.com,2013-03-08 04:55:00,
2013-03-07 23:11:00,60.3,35.2,30.09,ESE,112,5.1,-999.0,39,-99.99,,,0.00,Acu-Link.com,2013-03-08 05:11:00,
2013-03-07 23:26:00,59.7,35.4,30.09,SSE,157,7.4,-999.0,40,-99.99,,,0.00,Acu-Link.com,2013-03-08 05:26:00,
2013-03-07 23:41:00,59.4,35.7,30.09,ENE,67,5.1,-999.0,41,-99.99,,,0.00,Acu-Link.com,2013-03-08 05:41:00,
2013-03-07 23:56:00,58.8,37.0,30.08,East,90,5.1,-999.0,44,-99.99,,,0.00,Acu-Link.com,2013-03-08 05:56:00,